Abingdon, VA

5:16 PM EST on December 08, 2019 (GMT -0500)
Virginia Highlands

Weather History for KVJI - November, 2019

Change the Weather History Date:

Friday, November 15, 2019

  Actual Average (WUND) Record (WUND)
Temperature  
Mean Temperature 42 °F -  
Max Temperature 52 °F - - (-1)
Min Temperature 31 °F - - (-1)
Degree Days  
Heating Degree Days 24    
Moisture  
Dew Point 20 °F    
Average Humidity 47    
Maximum Humidity 70    
Minimum Humidity 25    
Precipitation  
Precipitation 0.00 in - - ()
Sea Level Pressure  
Sea Level Pressure 30.21 in    
Wind  
Wind Speed 2 mph (ENE)    
Max Wind Speed 9 mph    
Max Gust Speed -    
Visibility 10 miles    
Events      
Averages and records for this station are not official NWS values.
T = Trace of Precipitation, MM = Missing Value Source: NWS Daily Summary

Daily Weather History Graph

Daily Weather History Graph

Search for Another Location

Airport or City:

Astronomy

Nov. 15, 2019 Rise Set
Actual Time 7:05 AM EST 5:19 PM EST
Civil Twilight 6:38 AM EST 5:46 PM EST
Nautical Twilight 6:07 AM EST 6:17 PM EST
Astronomical Twilight 5:36 AM EST 6:48 PM EST
Moon 7:56 PM EST (11/15) 9:58 AM EST (11/15)
Length of Visible Light 11h 08m
Length of Day
10h 13m
Waning Gibbous, 90% of the Moon is Illuminated
Nov 15
Waning Gibbous
Nov 19
Last Quarter
Nov 26
New
Dec 4
First Quarter
Dec 12
Full

Hourly Weather History & Observations

Time (EST) Temp. Windchill Dew Point Humidity Pressure Visibility Wind Dir Wind Speed Gust Speed Precip Events Conditions
12:15 AM 33.4 °F - 24.4 °F 70% 30.27 in 10.0 mi Calm Calm - N/A   Scattered Clouds
12:35 AM 33.8 °F - 24.4 °F 69% 30.26 in 10.0 mi Calm Calm - N/A   Clear
12:55 AM 33.8 °F 30.8 °F 24.3 °F 68% 30.26 in 10.0 mi East 3.5 mph - N/A   Scattered Clouds
1:15 AM 33.4 °F - 24.3 °F 69% 30.26 in 10.0 mi Calm Calm - N/A   Scattered Clouds
1:55 AM 33.3 °F - 24.4 °F 70% 30.26 in 10.0 mi Calm Calm - N/A   Clear
2:15 AM 33.4 °F - 22.1 °F 63% 30.25 in 10.0 mi Calm Calm - N/A   Clear
2:35 AM 33.8 °F - 21.0 °F 60% 30.25 in 10.0 mi Calm Calm - N/A   Clear
2:55 AM 33.8 °F - 21.7 °F 61% 30.24 in 10.0 mi Calm Calm - N/A   Clear
3:15 AM 32.4 °F - 23.0 °F 68% 30.24 in 10.0 mi Calm Calm - N/A   Clear
3:35 AM 32.4 °F 29.1 °F 23.0 °F 68% 30.23 in 10.0 mi ESE 3.5 mph - N/A   Clear
3:55 AM 32.9 °F - 22.6 °F 66% 30.24 in 10.0 mi Calm Calm - N/A   Clear
4:15 AM 32.9 °F - 22.6 °F 66% 30.24 in 10.0 mi Calm Calm - N/A   Clear
4:35 AM 32.5 °F - 23.9 °F 70% 30.23 in 10.0 mi Calm Calm - N/A   Clear
4:55 AM 32.5 °F 28.1 °F 23.9 °F 70% 30.23 in 10.0 mi East 4.6 mph - N/A   Clear
5:15 AM 32.5 °F - 23.2 °F 68% 30.23 in 10.0 mi Calm Calm - N/A   Clear
5:35 AM 32.5 °F 28.1 °F 22.6 °F 67% 30.23 in 10.0 mi East 4.6 mph - N/A   Clear
5:55 AM 33.6 °F 29.4 °F 20.3 °F 58% 30.23 in 10.0 mi East 4.6 mph - N/A   Clear
6:15 AM 33.3 °F - 19.6 °F 57% 30.23 in 10.0 mi Calm Calm - N/A   Clear
6:35 AM 32.2 °F - 21.4 °F 64% 30.24 in 10.0 mi Calm Calm - N/A   Clear
6:55 AM 32.2 °F - 21.4 °F 64% 30.23 in 10.0 mi Calm Calm - N/A   Clear
7:15 AM 31.6 °F - 22.1 °F 68% 30.24 in 10.0 mi Calm Calm - N/A   Clear
7:35 AM 31.6 °F - 21.9 °F 67% 30.25 in 10.0 mi Calm Calm - N/A   Clear
7:55 AM 31.5 °F - 22.6 °F 70% 30.25 in 10.0 mi Calm Calm - N/A   Clear
8:15 AM 31.8 °F - 23.0 °F 70% 30.25 in 10.0 mi Calm Calm - N/A   Clear
8:55 AM 39.9 °F 36.7 °F 20.8 °F 47% 30.25 in 10.0 mi ESE 4.6 mph - N/A   Scattered Clouds
9:15 AM 41.7 °F 38.0 °F 19.9 °F 42% 30.25 in 10.0 mi ESE 5.8 mph - N/A   Clear
9:35 AM 43.7 °F 39.7 °F 21.4 °F 41% 30.25 in 10.0 mi SE 6.9 mph - N/A   Clear
9:55 AM 45.7 °F 43.4 °F 19.0 °F 35% 30.25 in 10.0 mi SE 4.6 mph - N/A   Clear
10:15 AM 46.6 °F - 18.9 °F 33% 30.24 in 10.0 mi ESE 6.9 mph - N/A   Clear
10:55 AM 47.7 °F - 14.2 °F 26% 30.23 in 10.0 mi Calm Calm - N/A   Clear
11:35 AM 47.3 °F - 14.2 °F 27% 30.23 in 10.0 mi NE 4.6 mph - N/A   Clear
11:55 AM 47.5 °F - 14.4 °F 27% 30.21 in 10.0 mi Calm Calm - N/A   Clear
12:15 PM 48.2 °F - 15.1 °F 27% 30.22 in 10.0 mi NE 3.5 mph - N/A   Clear
12:35 PM 48.4 °F - 15.6 °F 27% 30.20 in 10.0 mi SE 4.6 mph - N/A   Clear
12:55 PM 49.6 °F - 17.2 °F 28% 30.18 in 10.0 mi Calm Calm - N/A   Clear
1:15 PM 50.0 °F - 16.9 °F 27% 30.18 in 10.0 mi ENE 5.8 mph - N/A   Clear
1:35 PM 51.6 °F - 18.7 °F 27% 30.17 in 10.0 mi ENE 5.8 mph - N/A   Clear
1:55 PM 51.8 °F - 17.2 °F 26% 30.16 in 10.0 mi ENE 9.2 mph - N/A   Clear
2:15 PM 52.0 °F - 17.2 °F 25% 30.16 in 10.0 mi East 5.8 mph - N/A   Clear
2:35 PM 51.8 °F - 16.7 °F 25% 30.16 in 10.0 mi ENE 5.8 mph - N/A   Clear
2:55 PM 51.8 °F - 16.5 °F 25% 30.16 in 10.0 mi ENE 8.1 mph - N/A   Clear
3:15 PM 51.8 °F - 18.1 °F 27% 30.16 in 10.0 mi NE 6.9 mph - N/A   Clear
3:35 PM 51.8 °F - 18.0 °F 26% 30.16 in 10.0 mi ENE 5.8 mph - N/A   Clear
3:55 PM 51.6 °F - 17.2 °F 26% 30.15 in 10.0 mi ENE 4.6 mph - N/A   Clear
4:15 PM 50.7 °F - 18.0 °F 27% 30.15 in 10.0 mi ENE 5.8 mph - N/A   Clear
4:35 PM 50.2 °F - 18.7 °F 29% 30.15 in 10.0 mi Calm Calm - N/A   Clear
4:55 PM 49.3 °F - 18.1 °F 29% 30.15 in 10.0 mi Calm Calm - N/A   Clear
5:15 PM 47.8 °F - 18.0 °F 31% 30.16 in 10.0 mi Calm Calm - N/A   Clear
5:35 PM 46.4 °F 45.2 °F 18.7 °F 33% 30.16 in 10.0 mi NNE 3.5 mph - N/A   Clear
5:55 PM 45.9 °F 42.9 °F 18.3 °F 33% 30.16 in 10.0 mi ENE 5.8 mph - N/A   Clear
6:15 PM 45.1 °F 40.8 °F 19.4 °F 36% 30.17 in 10.0 mi ENE 8.1 mph - N/A   Clear
6:35 PM 45.1 °F 40.8 °F 19.0 °F 35% 30.18 in 10.0 mi NE 8.1 mph - N/A   Clear
6:55 PM 44.6 °F 41.4 °F 19.2 °F 36% 30.17 in 10.0 mi NE 5.8 mph - N/A   Clear
7:15 PM 43.7 °F 39.7 °F 20.1 °F 39% 30.18 in 10.0 mi NE 6.9 mph - N/A   Clear
7:35 PM 43.7 °F 40.3 °F 19.9 °F 39% 30.18 in 10.0 mi ENE 5.8 mph - N/A   Clear
7:55 PM 43.2 °F 40.5 °F 19.9 °F 40% 30.18 in 10.0 mi ENE 4.6 mph - N/A   Clear
8:15 PM 42.3 °F 40.5 °F 20.1 °F 41% 30.18 in 10.0 mi NE 3.5 mph - N/A   Clear
8:35 PM 41.7 °F 37.3 °F 20.5 °F 43% 30.18 in 10.0 mi ENE 6.9 mph - N/A   Clear
8:55 PM 41.7 °F 38.0 °F 20.7 °F 43% 30.19 in 10.0 mi ENE 5.8 mph - N/A   Clear
9:15 PM 40.5 °F 35.8 °F 20.8 °F 46% 30.19 in 10.0 mi ENE 6.9 mph - N/A   Clear
9:35 PM 40.5 °F 35.8 °F 20.8 °F 46% 30.19 in 10.0 mi East 6.9 mph - N/A   Clear
9:55 PM 39.7 °F 36.5 °F 21.0 °F 47% 30.19 in 10.0 mi ENE 4.6 mph - N/A   Clear
10:15 PM 39.2 °F - 21.0 °F 48% 30.19 in 10.0 mi Calm Calm - N/A   Clear
10:35 PM 38.7 °F 36.3 °F 21.2 °F 50% 30.19 in 10.0 mi ENE 3.5 mph - N/A   Clear
10:55 PM 38.1 °F 34.6 °F 21.2 °F 51% 30.19 in 10.0 mi East 4.6 mph - N/A   Clear
11:15 PM 37.0 °F 34.5 °F 21.4 °F 53% 30.18 in 10.0 mi ESE 3.5 mph - N/A   Clear
11:35 PM 35.4 °F 32.6 °F 22.1 °F 58% 30.17 in 10.0 mi East 3.5 mph - N/A   Clear
11:55 PM 34.5 °F 31.6 °F 21.7 °F 60% 30.17 in 10.0 mi ESE 3.5 mph - N/A   Clear